Skip Page Navigation
NASA JPL Caltech
NASA Logo - Jet Propulsion Laboratory + View the NASA Portal
+ Near-Earth Object (NEO) Program
Search JPL
JPL Home Earth Solar System Stars & Galaxies Technology
JPL Solar System Dynamics
BODIES ORBITS EPHEMERIDES TOOLS PHYSICAL DATA DISCOVERY FAQ SITE MAP
JPL Small-Body Database Browser
Search: [ help ]  
20425 (1998 VD35)
Classification: Apollo [NEO, PHA]          SPK-ID: 2020425
Ephemeris | Orbit Diagram | Orbital Elements | Physical Parameters | Discovery Circumstances | Close-Approach Data ]

[ hide orbit diagram ]
Orbit Diagram
Note: Make sure you have Java enabled on your browser to see the applet. This applet is provided as a 3D orbit visualization tool. The applet was implemented using 2-body methods, and hence should not be used for determining accurate long-term trajectories (over several years or decades) or planetary encounter circumstances. For accurate long-term ephemerides, please instead use our Horizons system.
Orbit Viewer

Additional Notes: the orbits shown in the applet are color coded. The planets are white lines, and the asteroid/comet is a blue line. The bright white line indicates the portion of the orbit that is above the ecliptic plane, and the darker portion is below the ecliptic plane. Likewise for the asteroid/comet orbit, the light blue indicates the portion above the ecliptic plane, and the dark blue the portion below the ecliptic plane.

Orbit Viewer applet originally written and kindly provided by Osamu Ajiki (AstroArts), and further modified by Ron Baalke (JPL).


Orbital Elements at Epoch 2456400.5 (2013-Apr-18.0) TDB
Reference: JPL 27 (heliocentric ecliptic J2000)
 Element Value Uncertainty (1-sigma)   Units 
e .476302026570973 1.5218e-07  
a 1.564654020944215 8.6745e-08 AU
q .8194061398860639 2.2693e-07 AU
i 6.983007004534129 5.2576e-05 deg
node 227.4011151494483 0.00020024 deg
peri 296.1226632483334 0.00019188 deg
M 77.66521430652656 0.00016481 deg
tp 2456246.276714153422
(2012-Nov-14.77671415)
0.0003146 JED
period 714.8680834851258
1.96
5.9449e-05
1.628e-07
d
yr
n .5035894150497355 4.1879e-08 deg/d
Q 2.309901902002367 1.2806e-07 AU
  Orbit Determination Parameters
   # obs. used (total)      51  
   data-arc span      2448 days (6.70 yr)  
   first obs. used      1998-11-15  
   last obs. used      2005-07-29  
   planetary ephem.      DE405  
   SB-pert. ephem.      SB405-CPV-2  
   condition code      1  
   fit RMS      .48966  
   data source      ORB  
   producer      Otto Matic  
   solution date      2013-Apr-29 15:37:58  

Additional Information
 Earth MOID = .00303777 AU 
 T_jup = 4.283 
[ show covariance matrix ]

Ephemeris | Orbit Diagram | Orbital Elements | Physical Parameters | Discovery Circumstances | Close-Approach Data ]

Physical Parameter Table
Parameter Symbol Value Units Sigma Reference Notes
absolute magnitude H 20.4 mag n/a PDS3 (MPO 7830)  
SMASSII spectral type spec_B Sq   n/a Binzel et al. (2004) Icarus 170, 259-294  

20425 (1998 VD35)          Discovered 1998-Nov-15 by Spacewatch at Kitt Peak (691)
Reference: 20010109/Numbers.arcLast Updated: 2004-04-19

[ show close-approach data ]
Ephemeris | Orbit Diagram | Orbital Elements | Physical Parameters | Discovery Circumstances | Close-Approach Data ]
ABOUT SSD CREDITS/AWARDS PRIVACY/COPYRIGHT GLOSSARY LINKS
FirstGov 2013-May-23 15:37 UT
(server date/time)  
NASA Home Page
Site Manager:   Donald K. Yeomans
Webmaster  Alan B. Chamberlin